Showing default

KORSAT-2, 62377

Orbit data source: Space-Track

KORSAT-2, 62377 is a payload satellite owned by DAPA (KR) in LEO that was launched on Sat, 21 Dec 2024 UTC via an FALCON 9 launch vehicle from the Air Force Western Test Range (AFWTR). Payload-class satellites include a variety of spacecraft equipped with specific instruments for various scientific and technological missions. These include communications satellites like Starlink; space stations such as the ISS; scientific satellites like the Hubble; Earth observation satellites from companies like Planet Labs, Umbra, and HawkEye 360; GPS; miniature CubeSats for education and research; and military/defense satellites.

Loading next visibility...
Identifier
62377, 2024-247A
Orbit
LEO
Country
Flag of UnknownUnknown / SKOR
Related business
Manufacturer
KAI
Mission
Operational Defense Radar Imaging
Bus & Motor
CAS500?, Unknown motor
Mass
~800 kg wet, ~750 kg dry
Launch date (UTC)
2024-12-21 (1 year ago)
Launch vehicle
FALCON 9
Launch site
Air Force Western Test Range (AFWTR)
Object type
Payload
Rocket body
Debris
Shape & HBR
Hex Box + 3 Pan, 3.0 m
Radar Cross Section
10.467 m², Large (>1 m²)

Expand to show TLE details & history
Last TLE update: 18 hours ago

TLE from 18 hours ago
0 KORSAT-2
1 62377U 24247A   26036.49033836  .00008046  00000-0  67250-3 0  9998
2 62377  45.4109  30.6067 0012082 251.7349 108.2215 14.98944934 61805
Epoch: 2026-02-05T11:46Z
TLE epoch observation values (Epoch: 2026-02-05T11:46:05.234Z)
Latitude
0.00001°
Longitude
78.44309°
Altitude
572.833 km
Speed
7.575 km/s
True Right ascension
02h 02m 25s
True Declination
0° 00' 00"
Sunlit
Object was in daylight at epoch
Visualization orbit readout
Latitude
Unknown
Longitude
Unknown
Altitude
Unknown
Speed
Unknown
Apparent Right ascension
Unknown
Apparent Declination
Unknown
Sunlit
N/A
Visualization observer readout
Local Sidereal Time
08:19:19
Azimuth
Unknown
Elevation
Unknown
Doppler factor
Unknown
Orbital elements
Apogee altitude
580.073 km
Perigee altitude
563.279 km
Semi-major axis
6,949.813 km
Eccentricity
0.00121
Inclination
45.4109°
RAAN
30.6067°
Arg. of periapsis
251.7349°
True anomaly
108.35294°
Mean anomaly
108.2215°
Eccentric anomaly
108.28723°
Mean motion
3.74614 °/min
Orbital period
96.1 mins
BSTAR
0.0006725
Loading maneuver chart data...
Computing Atmospheric mass density...
Loading historical data...
Loading historical data...
Loading historical data...
Loading historical data...
Loading historical data...
Loading historical data...
Loading historical data...

Documentation

Showing up to 5 results
|